Location: Châteauvieux
(47.2310°N, 1.3828°E)
Time: 23:35:34
(UTC+00:00)

Meteor 2-9 Rocket - Pass Details

Date: 15 May 2026
Orbit: 790 x 893 km, 81.3° (Epoch: 11 June)

Event Time Altitude Azimuth Distance (km) Brightness Sun altitude
Rises 22:32:05 0° 352° (N) 3,322 8.7 -21.4°
Reaches altitude 10° 22:34:30 10° 356° (N) 2,397 7.6 -21.5°
Maximum altitude 22:39:49 56° 75° (ENE) 968 4.4 -21.8°
Enters shadow 22:41:21 42° 127° (SE) 1,161 4.5 -21.9°
